Ana Sayfa
METAR-TAF:

METAR-TAF

Havaalanları :

Doylestown Airport

Doylestown, Pensilvanya, Amerika Birleşik Devletleri

Enlem: 40-19-48N, Boylam: 075-07-21W, yükseklik: 120 m

Güncel hava durumu gözlemi

Rapor saat 14:54 UTC de 15 dakika önce yapıldı.
Rüzgar batı/kuzeybatıdan 13 kt ve 18 kt'a kadar ani rüzgarlar
Sıcaklık -1°C
Nem 43%
Basınç 1028 hPa
Görüş mesafesi: 16.1 km
Açık gökyüzü

METAR: KDYL 131454Z AUTO 30013G18KT 10SM CLR M01/M12 A3035 RMK AO2 SLP287 T10111117 51014

Saat: 10:09 (15:09 UTC)


TAF: eksik

4.000'den fazla havaalanı için hava durumu gözlemleri ve tahminleri (METAR ve TAF raporları).

Kullanılabilir istasyonlar harita üzerinde sarı ve kırmızı noktalarla gösterilir.

İstasyonun adını görmek için fareyi noktanın üzerinde gezdirin.

Sonrasında hava gözlem ve tahminlerini görmek için tıklayın.

Haritayı değiştirmek için: yaklaştırmak için siyah artı işaretli yeşil düğmeye ve uzaklaştırmak için de eksi işaretli düğmeye hızla tıklayın; bitişik haritalar için yeşil okları kullanın.


METAR-TAF: